| time (UTC) | temp F | wind direction | speed MPH | gust MPH | rain 1hr in | rain 24hr in | rain mn in | humidity % | barometer mb |
| 20260906152859 | 92 | 201 | 0.0 | 1.0 | 0.00 | 0.00 | 0.00 | 57 | 1013.3 |
| 20260906152358 | 92 | 201 | 0.0 | 1.0 | 0.00 | 0.00 | 0.00 | 60 | 1013.3 |
| 20260906151842 | 92 | 201 | 0.0 | 0.0 | 0.00 | 0.00 | 0.00 | 62 | 1013.3 |
| 20260906151327 | 91 | 201 | 0.0 | 0.0 | 0.00 | 0.00 | 0.00 | 62 | 1013.2 |
| 20260906150746 | 91 | 201 | 0.0 | 3.0 | 0.00 | 0.00 | 0.00 | 62 | 1013.2 |
| 20260906150227 | 90 | 201 | 0.0 | 3.0 | 0.00 | 0.00 | 0.00 | 61 | 1013.1 |
| 20260906145722 | 90 | 174 | 0.0 | 0.0 | 0.00 | 0.00 | 0.00 | 64 | 1013.2 |
| 20260906145423 | 89 | 174 | 0.0 | 0.0 | 0.00 | 0.00 | 0.00 | 63 | 1013.2 |
| 20260906144700 | 89 | 174 | 0.0 | 1.0 | 0.00 | 0.00 | 0.00 | 67 | 1013.2 |
| 20260906144124 | 88 | 174 | 0.0 | 1.0 | 0.00 | 0.00 | 0.00 | 67 | 1013.2 |
| 20260906143602 | 88 | 174 | 0.0 | 1.0 | 0.00 | 0.00 | 0.00 | 68 | 1013.2 |
| 20260906143102 | 88 | 174 | 0.0 | 0.0 | 0.00 | 0.00 | 0.00 | 67 | 1013.2 |
| 20260906142519 | 87 | 174 | 0.0 | 0.0 | 0.00 | 0.00 | 0.00 | 70 | 1013.2 |
| 20260906141937 | 87 | 174 | 0.0 | 0.0 | 0.00 | 0.00 | 0.00 | 72 | 1013.2 |
| 20260906141356 | 86 | 174 | 0.0 | 1.0 | 0.00 | 0.00 | 0.00 | 72 | 1013.2 |
| 20260906141109 | 86 | 174 | 0.0 | 1.0 | 0.00 | 0.00 | 0.00 | 72 | 1013.2 |
| 20260906140340 | 85 | 140 | 0.0 | 1.0 | 0.00 | 0.00 | 0.00 | 76 | 1013.1 |
| 20260906140043 | 84 | 140 | 0.0 | 1.0 | 0.00 | 0.00 | 0.00 | 77 | 1013.2 |
| 20260906135240 | 84 | 140 | 0.0 | 1.0 | 0.00 | 0.00 | 0.00 | 78 | 1013.2 |
| 20260906134700 | 84 | 140 | 0.0 | 1.0 | 0.00 | 0.00 | 0.00 | 78 | 1013.2 |
| 20260906134122 | 83 | 140 | 0.0 | 0.0 | 0.00 | 0.00 | 0.00 | 81 | 1013.1 |
| 20260906133541 | 82 | 140 | 0.0 | 0.0 | 0.00 | 0.00 | 0.00 | 84 | 1013.1 |
| 20260906133001 | 81 | 140 | 0.0 | 0.0 | 0.00 | 0.00 | 0.00 | 85 | 1013.1 |
| 20260906132424 | 80 | 140 | 0.0 | 0.0 | 0.00 | 0.00 | 0.00 | 85 | 1013.1 |
| 20260906131844 | 80 | 140 | 0.0 | 0.0 | 0.00 | 0.00 | 0.00 | 86 | 1013.0 |
| 20260906131323 | 79 | 140 | 0.0 | 0.0 | 0.00 | 0.00 | 0.00 | 88 | 1012.9 |
| 20260906130745 | 79 | 140 | 0.0 | 0.0 | 0.00 | 0.00 | 0.00 | 88 | 1012.9 |
| 20260906130206 | 79 | 140 | 0.0 | 0.0 | 0.00 | 0.00 | 0.00 | 88 | 1012.9 |
| 20260906125632 | 78 | 140 | 0.0 | 0.0 | 0.00 | 0.00 | 0.00 | 91 | 1012.8 |
| 20260906125115 | 77 | 140 | 0.0 | 0.0 | 0.00 | 0.00 | 0.00 | 91 | 1012.8 |
| 20260906124800 | 77 | 140 | 0.0 | 0.0 | 0.00 | 0.00 | 0.00 | 92 | 1012.8 |
| 20260906124019 | 76 | 140 | 0.0 | 0.0 | 0.00 | 0.00 | 0.00 | 92 | 1012.8 |
| 20260906123736 | 76 | 140 | 0.0 | 0.0 | 0.00 | 0.00 | 0.00 | 92 | 1012.8 |
| 20260906123015 | 76 | 140 | 0.0 | 0.0 | 0.00 | 0.00 | 0.00 | 93 | 1012.8 |
| 20260906122444 | 76 | 140 | 0.0 | 0.0 | 0.00 | 0.00 | 0.00 | 93 | 1012.6 |
| 20260906121927 | 76 | 140 | 0.0 | 0.0 | 0.00 | 0.00 | 0.00 | 92 | 1012.6 |
| 20260906121349 | 76 | 140 | 0.0 | 0.0 | 0.00 | 0.00 | 0.00 | 92 | 1012.3 |
| 20260906120818 | 76 | 140 | 0.0 | 0.0 | 0.00 | 0.00 | 0.00 | 92 | 1012.3 |
| 20260906120253 | 76 | 140 | 0.0 | 0.0 | 0.00 | 0.00 | 0.00 | 93 | 1012.3 |
| 20260906115727 | 75 | 140 | 0.0 | 0.0 | 0.00 | 0.00 | 0.00 | 93 | 1012.3 |
| 20260906115155 | 75 | 140 | 0.0 | 0.0 | 0.00 | 0.00 | 0.00 | 94 | 1012.3 |
| 20260906114622 | 76 | 140 | 0.0 | 0.0 | 0.00 | 0.00 | 0.00 | 93 | 1012.3 |
| 20260906114051 | 76 | 140 | 0.0 | 0.0 | 0.00 | 0.00 | 0.00 | 94 | 1012.1 |
| 20260906113521 | 75 | 140 | 0.0 | 0.0 | 0.00 | 0.00 | 0.00 | 94 | 1012.1 |
| 20260906113007 | 75 | 140 | 0.0 | 0.0 | 0.00 | 0.00 | 0.00 | 94 | 1012.1 |
| 20260906112434 | 75 | 140 | 0.0 | 0.0 | 0.00 | 0.00 | 0.00 | 94 | 1011.8 |
| 20260906111903 | 76 | 140 | 0.0 | 0.0 | 0.00 | 0.00 | 0.00 | 94 | 1011.8 |
| 20260906111333 | 76 | 140 | 0.0 | 0.0 | 0.00 | 0.00 | 0.00 | 93 | 1011.8 |
| 20260906110803 | 76 | 140 | 0.0 | 0.0 | 0.00 | 0.00 | 0.00 | 93 | 1011.8 |
| 20260906110725 | 76 | 140 | 0.0 | 0.0 | 0.00 | 0.00 | 0.00 | 93 | 1011.8 |
| 20260906105721 | 76 | 140 | 0.0 | 0.0 | 0.00 | 0.00 | 0.00 | 93 | 1011.8 |
| 20260906105412 | 76 | 140 | 0.0 | 0.0 | 0.00 | 0.00 | 0.00 | 93 | 1011.8 |
| 20260906104622 | 76 | 140 | 0.0 | 0.0 | 0.00 | 0.00 | 0.00 | 92 | 1011.8 |
| 20260906104311 | 76 | 140 | 0.0 | 0.0 | 0.00 | 0.00 | 0.00 | 92 | 1011.7 |
| 20260906103522 | 76 | 140 | 0.0 | 0.0 | 0.00 | 0.00 | 0.00 | 91 | 1011.7 |
| 20260906102951 | 76 | 140 | 0.0 | 0.0 | 0.00 | 0.00 | 0.00 | 91 | 1011.7 |
| 20260906102443 | 76 | 140 | 0.0 | 0.0 | 0.00 | 0.00 | 0.00 | 91 | 1011.6 |
| 20260906101910 | 77 | 140 | 0.0 | 0.0 | 0.00 | 0.00 | 0.00 | 91 | 1011.6 |
| 20260906101358 | 77 | 140 | 0.0 | 0.0 | 0.00 | 0.00 | 0.00 | 89 | 1011.6 |
| 20260906100823 | 77 | 140 | 0.0 | 0.0 | 0.00 | 0.00 | 0.00 | 88 | 1011.6 |
| 20260906100253 | 78 | 140 | 0.0 | 0.0 | 0.00 | 0.00 | 0.00 | 88 | 1011.6 |
| 20260906095720 | 77 | 140 | 0.0 | 0.0 | 0.00 | 0.00 | 0.00 | 89 | 1011.4 |
| 20260906095209 | 77 | 140 | 0.0 | 0.0 | 0.00 | 0.00 | 0.00 | 91 | 1011.4 |
| 20260906094647 | 77 | 140 | 0.0 | 0.0 | 0.00 | 0.00 | 0.00 | 91 | 1011.4 |
| 20260906094135 | 77 | 140 | 0.0 | 0.0 | 0.00 | 0.00 | 0.00 | 89 | 1011.3 |
| 20260906093601 | 77 | 140 | 0.0 | 0.0 | 0.00 | 0.00 | 0.00 | 89 | 1011.3 |
| 20260906093011 | 78 | 140 | 0.0 | 0.0 | 0.00 | 0.00 | 0.00 | 88 | 1011.3 |
| 20260906092433 | 77 | 140 | 0.0 | 0.0 | 0.00 | 0.00 | 0.00 | 88 | 1011.2 |
| 20260906091851 | 77 | 140 | 0.0 | 0.0 | 0.00 | 0.00 | 0.00 | 89 | 1011.2 |
| 20260906091315 | 78 | 140 | 0.0 | 0.0 | 0.00 | 0.00 | 0.00 | 88 | 1011.1 |
| 20260906090733 | 78 | 140 | 0.0 | 0.0 | 0.00 | 0.00 | 0.00 | 87 | 1011.1 |
| 20260906090232 | 78 | 140 | 0.0 | 0.0 | 0.00 | 0.00 | 0.00 | 87 | 1011.1 |
| 20260906085641 | 78 | 140 | 0.0 | 0.0 | 0.00 | 0.00 | 0.00 | 88 | 1010.9 |
| 20260906085115 | 78 | 138 | 0.0 | 0.0 | 0.00 | 0.00 | 0.00 | 88 | 1010.9 |
| 20260906084611 | 78 | 140 | 0.0 | 0.0 | 0.00 | 0.00 | 0.00 | 88 | 1010.9 |
| 20260906084021 | 78 | 140 | 0.0 | 0.0 | 0.00 | 0.00 | 0.00 | 87 | 1010.9 |
| 20260906083452 | 78 | 140 | 0.0 | 1.0 | 0.00 | 0.00 | 0.00 | 86 | 1010.9 |
| 20260906082925 | 78 | 140 | 0.0 | 1.0 | 0.00 | 0.00 | 0.00 | 86 | 1010.9 |
| 20260906082422 | 78 | 140 | 0.0 | 0.0 | 0.00 | 0.00 | 0.00 | 87 | 1010.7 |
| 20260906081831 | 78 | 140 | 0.0 | 0.0 | 0.00 | 0.00 | 0.00 | 87 | 1010.7 |
| 20260906081241 | 78 | 140 | 0.0 | 0.0 | 0.00 | 0.00 | 0.00 | 88 | 1010.6 |
| 20260906080714 | 78 | 140 | 0.0 | 0.0 | 0.00 | 0.00 | 0.00 | 88 | 1010.6 |
| 20260906080127 | 78 | 140 | 0.0 | 0.0 | 0.00 | 0.00 | 0.00 | 87 | 1010.6 |
| 20260906075533 | 78 | 140 | 0.0 | 0.0 | 0.00 | 0.00 | 0.00 | 87 | 1010.8 |
| 20260906075014 | 78 | 140 | 0.0 | 0.0 | 0.00 | 0.00 | 0.00 | 86 | 1010.8 |
| 20260906074506 | 78 | 140 | 0.0 | 0.0 | 0.00 | 0.00 | 0.00 | 87 | 1010.8 |
| 20260906073947 | 78 | 140 | 0.0 | 0.0 | 0.00 | 0.00 | 0.00 | 88 | 1010.9 |
| 20260906073624 | 78 | 140 | 0.0 | 0.0 | 0.00 | 0.00 | 0.00 | 87 | 1010.9 |
| 20260906072817 | 78 | 140 | 0.0 | 0.0 | 0.00 | 0.00 | 0.00 | 87 | 1011.1 |
| 20260906072450 | 78 | 140 | 0.0 | 0.0 | 0.00 | 0.00 | 0.00 | 87 | 1011.1 |
| 20260906071707 | 78 | 140 | 0.0 | 0.0 | 0.00 | 0.00 | 0.00 | 87 | 1011.1 |
| 20260906071635 | 78 | 140 | 0.0 | 0.0 | 0.00 | 0.00 | 0.00 | 87 | 1011.2 |
| 20260906070553 | 78 | 140 | 0.0 | 0.0 | 0.00 | 0.00 | 0.00 | 87 | 1011.2 |
| 20260906070005 | 78 | 140 | 0.0 | 0.0 | 0.00 | 0.00 | 0.00 | 87 | 1011.2 |
| 20260906065429 | 79 | 140 | 0.0 | 0.0 | 0.00 | 0.00 | 0.00 | 86 | 1011.2 |
| 20260906064854 | 79 | 140 | 0.0 | 0.0 | 0.00 | 0.00 | 0.00 | 87 | 1011.2 |
| 20260906064313 | 79 | 140 | 0.0 | 0.0 | 0.00 | 0.00 | 0.00 | 86 | 1011.3 |
| 20260906063747 | 79 | 140 | 0.0 | 0.0 | 0.00 | 0.00 | 0.00 | 85 | 1011.3 |
| 20260906063203 | 79 | 140 | 0.0 | 0.0 | 0.00 | 0.00 | 0.00 | 86 | 1011.4 |
| 20260906062620 | 79 | 140 | 0.0 | 0.0 | 0.00 | 0.00 | 0.00 | 86 | 1011.4 |
| 20260906062034 | 79 | 140 | 0.0 | 0.0 | 0.00 | 0.00 | 0.00 | 86 | 1011.3 |
| 20260906061453 | 79 | 140 | 0.0 | 0.0 | 0.00 | 0.00 | 0.00 | 85 | 1011.4 |
| 20260906060914 | 79 | 140 | 0.0 | 0.0 | 0.00 | 0.00 | 0.00 | 85 | 1011.4 |
| 20260906060333 | 79 | 140 | 0.0 | 0.0 | 0.00 | 0.00 | 0.00 | 85 | 1011.4 |
| 20260906055751 | 79 | 140 | 0.0 | 0.0 | 0.00 | 0.00 | 0.00 | 84 | 1011.4 |
| 20260906055213 | 80 | 140 | 0.0 | 0.0 | 0.00 | 0.00 | 0.00 | 84 | 1011.4 |
| 20260906054633 | 80 | 140 | 0.0 | 0.0 | 0.00 | 0.00 | 0.00 | 84 | 1011.4 |
| 20260906054316 | 80 | 140 | 0.0 | 0.0 | 0.00 | 0.00 | 0.00 | 83 | 1011.5 |
| 20260906053513 | 80 | 140 | 0.0 | 0.0 | 0.00 | 0.00 | 0.00 | 82 | 1011.5 |
| 20260906052931 | 80 | 140 | 0.0 | 0.0 | 0.00 | 0.00 | 0.00 | 81 | 1011.5 |
| 20260906052355 | 80 | 140 | 0.0 | 0.0 | 0.00 | 0.00 | 0.00 | 81 | 1011.3 |
| 20260906051847 | 80 | 140 | 0.0 | 0.0 | 0.00 | 0.00 | 0.00 | 81 | 1011.3 |
| 20260906051349 | 81 | 140 | 0.0 | 0.0 | 0.00 | 0.00 | 0.00 | 80 | 1011.3 |
| 20260906050828 | 81 | 140 | 0.0 | 0.0 | 0.00 | 0.00 | 0.00 | 81 | 1011.3 |
| 20260906050249 | 81 | 140 | 0.0 | 0.0 | 0.00 | 0.00 | 0.00 | 80 | 1011.3 |
| 20260906045732 | 81 | 140 | 0.0 | 0.0 | 0.00 | 0.00 | 0.00 | 80 | 1011.2 |
| 20260906045412 | 81 | 140 | 0.0 | 0.0 | 0.00 | 0.00 | 0.00 | 80 | 1011.2 |
| 20260906044839 | 81 | 140 | 0.0 | 0.0 | 0.00 | 0.00 | 0.00 | 79 | 1011.2 |
| 20260906044040 | 82 | 140 | 0.0 | 0.0 | 0.00 | 0.00 | 0.00 | 79 | 1011.2 |
| 20260906043508 | 82 | 140 | 0.0 | 0.0 | 0.00 | 0.00 | 0.00 | 78 | 1011.2 |
| 20260906042911 | 82 | 140 | 0.0 | 0.0 | 0.00 | 0.00 | 0.00 | 78 | 1010.9 |
| 20260906042332 | 82 | 140 | 0.0 | 0.0 | 0.00 | 0.00 | 0.00 | 78 | 1010.9 |
| 20260906041818 | 82 | 140 | 0.0 | 0.0 | 0.00 | 0.00 | 0.00 | 78 | 1010.9 |
| 20260906041244 | 82 | 140 | 0.0 | 0.0 | 0.00 | 0.00 | 0.00 | 78 | 1011.1 |
| 20260906040715 | 82 | 140 | 0.0 | 0.0 | 0.00 | 0.00 | 0.00 | 77 | 1011.1 |
| 20260906040143 | 82 | 140 | 0.0 | 0.0 | 0.00 | 0.00 | 0.00 | 77 | 1011.1 |
| 20260906035606 | 83 | 140 | 0.0 | 0.0 | 0.00 | 0.00 | 0.00 | 75 | 1011.1 |
| 20260906035036 | 83 | 140 | 0.0 | 0.0 | 0.00 | 0.00 | 0.00 | 75 | 1011.1 |
| 20260906034505 | 83 | 140 | 0.0 | 0.0 | 0.00 | 0.00 | 0.00 | 74 | 1011.1 |
| 20260906033957 | 83 | 140 | 0.0 | 0.0 | 0.00 | 0.00 | 0.00 | 75 | 1011.3 |
| 20260906033641 | 83 | 140 | 0.0 | 0.0 | 0.00 | 0.00 | 0.00 | 74 | 1011.3 |
| 20260906032849 | 83 | 140 | 0.0 | 0.0 | 0.00 | 0.00 | 0.00 | 74 | 1011.5 |
| 20260906032318 | 84 | 140 | 0.0 | 0.0 | 0.00 | 0.00 | 0.00 | 74 | 1011.5 |
| 20260906031746 | 84 | 140 | 0.0 | 0.0 | 0.00 | 0.00 | 0.00 | 73 | 1011.5 |
| 20260906031214 | 84 | 140 | 0.0 | 0.0 | 0.00 | 0.00 | 0.00 | 73 | 1011.6 |
| 20260906030644 | 84 | 140 | 0.0 | 0.0 | 0.00 | 0.00 | 0.00 | 72 | 1011.6 |
| 20260906030110 | 84 | 140 | 0.0 | 0.0 | 0.00 | 0.00 | 0.00 | 72 | 1011.6 |
| 20260906025538 | 84 | 140 | 0.0 | 0.0 | 0.00 | 0.00 | 0.00 | 72 | 1011.7 |
| 20260906025007 | 85 | 140 | 0.0 | 0.0 | 0.00 | 0.00 | 0.00 | 70 | 1011.8 |
| 20260906024454 | 85 | 140 | 0.0 | 0.0 | 0.00 | 0.00 | 0.00 | 69 | 1011.8 |
| 20260906023925 | 85 | 140 | 0.0 | 0.0 | 0.00 | 0.00 | 0.00 | 69 | 1011.6 |
| 20260906023617 | 85 | 140 | 0.0 | 0.0 | 0.00 | 0.00 | 0.00 | 69 | 1011.6 |
| 20260906022824 | 85 | 140 | 0.0 | 0.0 | 0.00 | 0.00 | 0.00 | 68 | 1011.5 |
| 20260906022310 | 85 | 140 | 0.0 | 0.0 | 0.00 | 0.00 | 0.00 | 68 | 1011.5 |
| 20260906021731 | 86 | 140 | 0.0 | 0.0 | 0.00 | 0.00 | 0.00 | 67 | 1011.5 |
| 20260906021446 | 86 | 140 | 0.0 | 0.0 | 0.00 | 0.00 | 0.00 | 66 | 1011.1 |
| 20260906020728 | 86 | 140 | 0.0 | 0.0 | 0.00 | 0.00 | 0.00 | 65 | 1011.1 |
| 20260906020204 | 86 | 140 | 0.0 | 0.0 | 0.00 | 0.00 | 0.00 | 65 | 1011.1 |
| 20260906015626 | 87 | 140 | 0.0 | 0.0 | 0.00 | 0.00 | 0.00 | 65 | 1010.8 |
| 20260906015040 | 87 | 140 | 0.0 | 0.0 | 0.00 | 0.00 | 0.00 | 65 | 1010.8 |
| 20260906014510 | 87 | 140 | 0.0 | 0.0 | 0.00 | 0.00 | 0.00 | 65 | 1010.8 |
| 20260906013942 | 87 | 140 | 0.0 | 0.0 | 0.00 | 0.00 | 0.00 | 64 | 1010.7 |
| 20260906013647 | 88 | 140 | 0.0 | 0.0 | 0.00 | 0.00 | 0.00 | 63 | 1010.7 |
| 20260906012851 | 88 | 140 | 0.0 | 0.0 | 0.00 | 0.00 | 0.00 | 62 | 1010.6 |
| 20260906012306 | 88 | 140 | 0.0 | 0.0 | 0.00 | 0.00 | 0.00 | 61 | 1010.6 |
| 20260906011800 | 89 | 140 | 0.0 | 0.0 | 0.00 | 0.00 | 0.00 | 60 | 1010.6 |
| 20260906011515 | 89 | 140 | 0.0 | 0.0 | 0.00 | 0.00 | 0.00 | 60 | 1010.4 |
| 20260906010741 | 90 | 140 | 0.0 | 0.0 | 0.00 | 0.00 | 0.00 | 60 | 1010.5 |
| 20260906010238 | 90 | 140 | 0.0 | 0.0 | 0.00 | 0.00 | 0.00 | 56 | 1010.5 |
| 20260906005653 | 92 | 140 | 1.0 | 5.0 | 0.00 | 0.00 | 0.00 | 51 | 1010.4 |
| 20260906005336 | 92 | 140 | 1.0 | 5.0 | 0.00 | 0.00 | 0.00 | 51 | 1010.4 |
| 20260906004544 | 93 | 143 | 1.0 | 3.0 | 0.00 | 0.00 | 0.00 | 50 | 1010.4 |
| 20260906004044 | 93 | 152 | 0.0 | 3.0 | 0.00 | 0.00 | 0.00 | 50 | 1010.5 |
| 20260906003514 | 93 | 152 | 0.0 | 1.0 | 0.00 | 0.00 | 0.00 | 49 | 1010.5 |
| 20260906002930 | 94 | 152 | 0.0 | 3.0 | 0.00 | 0.00 | 0.00 | 48 | 1010.4 |
| 20260906002410 | 94 | 152 | 0.0 | 3.0 | 0.00 | 0.00 | 0.00 | 47 | 1010.4 |
| 20260906001906 | 95 | 152 | 1.0 | 5.0 | 0.00 | 0.00 | 0.00 | 47 | 1010.4 |
| 20260906001316 | 95 | 152 | 3.0 | 8.0 | 0.00 | 0.00 | 0.00 | 46 | 1010.5 |
| 20260906000750 | 95 | 153 | 1.0 | 8.0 | 0.00 | 0.00 | 0.00 | 46 | 1010.5 |
| 20260906000248 | 95 | 133 | 0.0 | 8.0 | 0.00 | 0.00 | 0.00 | 45 | 1010.5 |
| 20260905235809 | 96 | 33 | 0.0 | 0.0 | 0.00 | 0.00 | 0.00 | 46 | 1010.5 |
| 20260905234659 | 96 | 33 | 0.0 | 1.0 | 0.00 | 0.00 | 0.00 | 44 | 1010.5 |
| 20260905234404 | 97 | 33 | 0.0 | 3.0 | 0.00 | 0.00 | 0.00 | 44 | 1010.3 |
| 20260905233620 | 97 | 33 | 0.0 | 3.0 | 0.00 | 0.00 | 0.00 | 41 | 1010.3 |
| 20260905233117 | 97 | 33 | 0.0 | 1.0 | 0.00 | 0.00 | 0.00 | 42 | 1010.3 |
| 20260905232809 | 98 | 33 | 0.0 | 1.0 | 0.00 | 0.00 | 0.00 | 41 | 1010.4 |
| 20260905232046 | 98 | 33 | 0.0 | 3.0 | 0.00 | 0.00 | 0.00 | 42 | 1010.4 |
| 20260905231502 | 98 | 33 | 0.0 | 3.0 | 0.00 | 0.00 | 0.00 | 41 | 1010.4 |
| 20260905231000 | 98 | 33 | 0.0 | 3.0 | 0.00 | 0.00 | 0.00 | 40 | 1010.4 |
| 20260905230706 | 98 | 347 | 0.0 | 3.0 | 0.00 | 0.00 | 0.00 | 41 | 1010.4 |
| 20260905225856 | 99 | 332 | 0.0 | 1.0 | 0.00 | 0.00 | 0.00 | 40 | 1010.2 |
| 20260905225554 | 99 | 331 | 0.0 | 1.0 | 0.00 | 0.00 | 0.00 | 40 | 1010.2 |
| 20260905224826 | 100 | 334 | 0.0 | 3.0 | 0.00 | 0.00 | 0.00 | 40 | 1010.2 |
| 20260905224319 | 99 | 334 | 1.0 | 5.0 | 0.00 | 0.00 | 0.00 | 41 | 1010.2 |
| 20260905223816 | 100 | 334 | 1.0 | 8.0 | 0.00 | 0.00 | 0.00 | 40 | 1010.2 |
| 20260905223246 | 100 | 349 | 1.0 | 8.0 | 0.00 | 0.00 | 0.00 | 39 | 1010.2 |
| 20260905222943 | 101 | 347 | 1.0 | 8.0 | 0.00 | 0.00 | 0.00 | 39 | 1010.3 |
| 20260905222218 | 100 | 349 | 1.0 | 8.0 | 0.00 | 0.00 | 0.00 | 40 | 1010.3 |
| 20260905221651 | 101 | 338 | 1.0 | 5.0 | 0.00 | 0.00 | 0.00 | 38 | 1010.3 |
| 20260905221639 | 101 | 341 | 1.0 | 5.0 | 0.00 | 0.00 | 0.00 | 37 | 1010.4 |
| 20260905220633 | 101 | 341 | 1.0 | 5.0 | 0.00 | 0.00 | 0.00 | 38 | 1010.3 |
| 20260905220130 | 100 | 282 | 1.0 | 5.0 | 0.00 | 0.00 | 0.00 | 38 | 1010.3 |
| 20260905215835 | 101 | 239 | 0.0 | 1.0 | 0.00 | 0.00 | 0.00 | 36 | 1010.4 |
| 20260905215107 | 101 | 211 | 0.0 | 5.0 | 0.00 | 0.00 | 0.00 | 35 | 1010.4 |
| 20260905214546 | 101 | 162 | 1.0 | 5.0 | 0.00 | 0.00 | 0.00 | 35 | 1010.4 |
| 20260905214044 | 101 | 241 | 1.0 | 3.0 | 0.00 | 0.00 | 0.00 | 35 | 1010.5 |
| 20260905213541 | 101 | 162 | 0.0 | 3.0 | 0.00 | 0.00 | 0.00 | 40 | 1010.5 |
| 20260905213041 | 100 | 162 | 0.0 | 3.0 | 0.00 | 0.00 | 0.00 | 36 | 1010.5 |
| 20260905212513 | 100 | 162 | 1.0 | 5.0 | 0.00 | 0.00 | 0.00 | 34 | 1010.5 |
| 20260905212150 | 101 | 277 | 1.0 | 3.0 | 0.00 | 0.00 | 0.00 | 34 | 1010.5 |
| 20260905211418 | 102 | 344 | 1.0 | 5.0 | 0.00 | 0.00 | 0.00 | 32 | 1010.7 |
| 20260905210904 | 102 | 307 | 1.0 | 3.0 | 0.00 | 0.00 | 0.00 | 36 | 1010.7 |
| 20260905210345 | 102 | 349 | 1.0 | 3.0 | 0.00 | 0.00 | 0.00 | 34 | 1010.7 |
| 20260905205846 | 102 | 317 | 1.0 | 5.0 | 0.00 | 0.00 | 0.00 | 32 | 1011.1 |
| 20260905205323 | 101 | 71 | 3.0 | 5.0 | 0.00 | 0.00 | 0.00 | 36 | 1011.1 |
| 20260905204824 | 101 | 328 | 3.0 | 9.0 | 0.00 | 0.00 | 0.00 | 35 | 1011.1 |
| 20260905204306 | 102 | 156 | 1.0 | 9.0 | 0.00 | 0.00 | 0.00 | 34 | 1011.5 |
| 20260905203802 | 102 | 5 | 1.0 | 5.0 | 0.00 | 0.00 | 0.00 | 35 | 1011.5 |
| 20260905203244 | 101 | 142 | 1.0 | 5.0 | 0.00 | 0.00 | 0.00 | 35 | 1011.5 |
| 20260905202742 | 102 | 143 | 1.0 | 5.0 | 0.00 | 0.00 | 0.00 | 34 | 1011.6 |
| 20260905202224 | 102 | 169 | 1.0 | 5.0 | 0.00 | 0.00 | 0.00 | 32 | 1011.7 |
| 20260905201943 | 102 | 342 | 1.0 | 8.0 | 0.00 | 0.00 | 0.00 | 32 | 1011.7 |
| 20260905201628 | 101 | 146 | 1.0 | 8.0 | 0.00 | 0.00 | 0.00 | 34 | 1011.7 |
| 20260905200629 | 102 | 220 | 1.0 | 5.0 | 0.00 | 0.00 | 0.00 | 35 | 1011.8 |
| 20260905200130 | 102 | 16 | 1.0 | 5.0 | 0.00 | 0.00 | 0.00 | 34 | 1011.8 |
| 20260905195616 | 101 | 191 | 1.0 | 3.0 | 0.00 | 0.00 | 0.00 | 34 | 1011.9 |
| 20260905195112 | 102 | 88 | 1.0 | 5.0 | 0.00 | 0.00 | 0.00 | 32 | 1012.0 |
| 20260905194557 | 103 | 35 | 1.0 | 5.0 | 0.00 | 0.00 | 0.00 | 32 | 1012.0 |
| 20260905194058 | 102 | 97 | 1.0 | 3.0 | 0.00 | 0.00 | 0.00 | 32 | 1012.2 |
| 20260905193556 | 102 | 109 | 1.0 | 9.0 | 0.00 | 0.00 | 0.00 | 38 | 1012.2 |
| 20260905193043 | 101 | 157 | 3.0 | 10.0 | 0.00 | 0.00 | 0.00 | 35 | 1012.1 |
| 20260905192541 | 101 | 176 | 1.0 | 9.0 | 0.00 | 0.00 | 0.00 | 32 | 1012.4 |
| 20260905192021 | 102 | 108 | 1.0 | 9.0 | 0.00 | 0.00 | 0.00 | 34 | 1012.4 |
| 20260905191743 | 102 | 59 | 1.0 | 5.0 | 0.00 | 0.00 | 0.00 | 36 | 1012.5 |
| 20260905191012 | 101 | 43 | 3.0 | 5.0 | 0.00 | 0.00 | 0.00 | 36 | 1012.6 |
| 20260905190505 | 101 | 143 | 3.0 | 10.0 | 0.00 | 0.00 | 0.00 | 38 | 1012.6 |
| 20260905190004 | 101 | 164 | 1.0 | 10.0 | 0.00 | 0.00 | 0.00 | 34 | 1012.6 |
| 20260905185435 | 101 | 145 | 1.0 | 5.0 | 0.00 | 0.00 | 0.00 | 36 | 1012.7 |
| 20260905185029 | 101 | 129 | 1.0 | 5.0 | 0.00 | 0.00 | 0.00 | 36 | 1012.7 |
| 20260905183859 | 101 | 174 | 3.0 | 9.0 | 0.00 | 0.00 | 0.00 | 35 | 1013.0 |
| 20260905183357 | 101 | 152 | 3.0 | 9.0 | 0.00 | 0.00 | 0.00 | 35 | 1013.0 |
| 20260905182857 | 101 | 140 | 3.0 | 8.0 | 0.00 | 0.00 | 0.00 | 36 | 1013.2 |
| 20260905182616 | 100 | 157 | 3.0 | 9.0 | 0.00 | 0.00 | 0.00 | 36 | 1013.2 |
| 20260905182332 | 100 | 142 | 3.0 | 9.0 | 0.00 | 0.00 | 0.00 | 35 | 1013.2 |
| 20260905181317 | 100 | 180 | 1.0 | 5.0 | 0.00 | 0.00 | 0.00 | 37 | 1013.2 |
| 20260905180744 | 100 | 341 | 0.0 | 1.0 | 0.00 | 0.00 | 0.00 | 44 | 1013.2 |
| 20260905180208 | 100 | 341 | 1.0 | 5.0 | 0.00 | 0.00 | 0.00 | 43 | 1013.2 |
| 20260905175635 | 100 | 344 | 1.0 | 8.0 | 0.00 | 0.00 | 0.00 | 41 | 1013.3 |
| 20260905175103 | 100 | 338 | 1.0 | 8.0 | 0.00 | 0.00 | 0.00 | 39 | 1013.3 |
| 20260905174752 | 101 | 18 | 1.0 | 3.0 | 0.00 | 0.00 | 0.00 | 42 | 1013.3 |
| 20260905174025 | 100 | 308 | 1.0 | 3.0 | 0.00 | 0.00 | 0.00 | 42 | 1013.4 |
| 20260905173521 | 98 | 205 | 1.0 | 5.0 | 0.00 | 0.00 | 0.00 | 40 | 1013.4 |
| 20260905173227 | 98 | 176 | 1.0 | 5.0 | 0.00 | 0.00 | 0.00 | 41 | 1013.4 |
| 20260905172729 | 99 | 128 | 1.0 | 5.0 | 0.00 | 0.00 | 0.00 | 44 | 1013.7 |
| 20260905172004 | 99 | 36 | 3.0 | 9.0 | 0.00 | 0.00 | 0.00 | 45 | 1013.7 |
| 20260905171652 | 98 | 152 | 3.0 | 9.0 | 0.00 | 0.00 | 0.00 | 42 | 1013.8 |
| 20260905170903 | 98 | 57 | 1.0 | 5.0 | 0.00 | 0.00 | 0.00 | 43 | 1013.8 |
| 20260905170331 | 98 | 232 | 1.0 | 5.0 | 0.00 | 0.00 | 0.00 | 43 | 1013.8 |
| 20260905165802 | 99 | 16 | 1.0 | 3.0 | 0.00 | 0.00 | 0.00 | 43 | 1014.0 |
| 20260905165234 | 98 | 313 | 1.0 | 3.0 | 0.00 | 0.00 | 0.00 | 48 | 1014.0 |
| 20260905164703 | 98 | 335 | 1.0 | 3.0 | 0.00 | 0.00 | 0.00 | 44 | 1014.0 |
| 20260905164144 | 97 | 335 | 1.0 | 5.0 | 0.00 | 0.00 | 0.00 | 44 | 1014.2 |
| 20260905163614 | 96 | 335 | 1.0 | 5.0 | 0.00 | 0.00 | 0.00 | 48 | 1014.1 |
| 20260905163043 | 97 | 335 | 1.0 | 5.0 | 0.00 | 0.00 | 0.00 | 44 | 1014.1 |
| 20260905162514 | 96 | 335 | 1.0 | 8.0 | 0.00 | 0.00 | 0.00 | 46 | 1014.1 |
| 20260905162201 | 95 | 330 | 1.0 | 8.0 | 0.00 | 0.00 | 0.00 | 48 | 1014.1 |
| 20260905161629 | 95 | 337 | 0.0 | 3.0 | 0.00 | 0.00 | 0.00 | 51 | 1014.1 |
| 20260905161132 | 95 | 335 | 0.0 | 3.0 | 0.00 | 0.00 | 0.00 | 51 | 1014.1 |
| 20260905160354 | 94 | 335 | 1.0 | 5.0 | 0.00 | 0.00 | 0.00 | 51 | 1014.1 |
| 20260905155844 | 94 | 335 | 1.0 | 5.0 | 0.00 | 0.00 | 0.00 | 55 | 1014.3 |
| 20260905155343 | 94 | 320 | 1.0 | 5.0 | 0.00 | 0.00 | 0.00 | 58 | 1014.3 |
| 20260905154834 | 93 | 320 | 1.0 | 5.0 | 0.00 | 0.00 | 0.00 | 56 | 1014.3 |
| 20260905154335 | 93 | 331 | 1.0 | 8.0 | 0.00 | 0.00 | 0.00 | 56 | 1014.3 |
| 20260905153835 | 92 | 332 | 1.0 | 8.0 | 0.00 | 0.00 | 0.00 | 59 | 1014.3 |
| 20260905153325 | 92 | 296 | 1.0 | 3.0 | 0.00 | 0.00 | 0.00 | 60 | 1014.3 |